User: anonymous   Login
Location: Kailua
(21.4020°N, 157.7390°W)
Time: 21:13:41
(UTC-10:00)
Language:

Cosmos 2221 Rocket - Orbit

View from above orbital plane
View from above orbital plane
View from above satellite
View from above satellite

Ground track
Ground track

The orbit data is extracted from the following two-line orbital elements,

1 22237U 92080B   17291.81702792  .00000074  00000-0  70284-5 0  9998
2 22237  82.5147   2.7207 0020346 157.3036 335.0176 14.78332363341703
Epoch (UTC): 18 October 2017 19:36:31
Eccentricity: 0.0020346
inclination: 82.5147°
perigee height: 620 km
apogee height: 649 km
right ascension of ascending node: 2.7207°
argument of perigee: 157.3036°
revolutions per day: 14.78332363
mean anomaly at epoch: 335.0176°
orbit number at epoch: 34170

The dashed part of the orbit path shows where the satellite is in the earth's shadow,  

DLR